| time (UTC) | temp F | wind direction | speed MPH | gust MPH | rain 1hr in | rain 24hr in | rain mn in | humidity % | barometer mb |
| 20260902170651 | 76 | 84 | 1.0 | 2.0 | 0.00 | 0.00 | 0.00 | 68 | 1013.6 |
| 20260902170145 | 76 | 72 | 1.0 | 2.0 | 0.00 | 0.00 | 0.00 | 68 | 1013.6 |
| 20260902165639 | 76 | 24 | 1.0 | 2.0 | 0.00 | 0.00 | 0.00 | 69 | 1013.6 |
| 20260902165133 | 76 | 89 | 0.0 | 2.0 | 0.00 | 0.00 | 0.00 | 66 | 1013.6 |
| 20260902164626 | 77 | 351 | 0.0 | 0.0 | 0.00 | 0.00 | 0.00 | 69 | 1013.6 |
| 20260902164350 | 77 | 60 | 0.0 | 0.0 | 0.00 | 0.00 | 0.00 | 66 | 1013.6 |
| 20260902163613 | 76 | 63 | 0.0 | 0.0 | 0.00 | 0.00 | 0.00 | 66 | 1013.6 |
| 20260902163107 | 77 | 63 | 0.0 | 0.0 | 0.00 | 0.00 | 0.00 | 67 | 1013.6 |
| 20260902162601 | 77 | 63 | 0.0 | 1.0 | 0.00 | 0.00 | 0.00 | 68 | 1013.6 |
| 20260902162055 | 77 | 103 | 1.0 | 3.0 | 0.00 | 0.00 | 0.00 | 67 | 1013.8 |
| 20260902161820 | 77 | 214 | 1.0 | 3.0 | 0.00 | 0.00 | 0.00 | 66 | 1013.9 |
| 20260902161043 | 77 | 153 | 1.0 | 3.0 | 0.00 | 0.00 | 0.00 | 64 | 1013.9 |
| 20260902160808 | 77 | 217 | 1.0 | 3.0 | 0.00 | 0.00 | 0.00 | 66 | 1014.0 |
| 20260902160302 | 77 | 26 | 1.0 | 3.0 | 0.00 | 0.00 | 0.00 | 69 | 1013.9 |
| 20260902155525 | 77 | 222 | 1.0 | 4.0 | 0.00 | 0.00 | 0.00 | 68 | 1014.1 |
| 20260902155019 | 77 | 214 | 0.0 | 4.0 | 0.00 | 0.00 | 0.00 | 67 | 1014.1 |
| 20260902154743 | 77 | 190 | 0.0 | 3.0 | 0.00 | 0.00 | 0.00 | 70 | 1014.2 |
| 20260902154007 | 77 | 327 | 0.0 | 3.0 | 0.00 | 0.00 | 0.00 | 69 | 1014.0 |
| 20260902153501 | 77 | 122 | 0.0 | 2.0 | 0.00 | 0.00 | 0.00 | 67 | 1013.9 |
| 20260902152955 | 76 | 56 | 1.0 | 3.0 | 0.00 | 0.00 | 0.00 | 71 | 1013.7 |
| 20260902152449 | 75 | 56 | 1.0 | 3.0 | 0.00 | 0.00 | 0.00 | 70 | 1013.5 |
| 20260902151943 | 75 | 88 | 1.0 | 2.0 | 0.00 | 0.00 | 0.00 | 70 | 1013.3 |
| 20260902151438 | 75 | 73 | 1.0 | 2.0 | 0.00 | 0.00 | 0.00 | 71 | 1013.5 |
| 20260902150931 | 75 | 48 | 1.0 | 2.0 | 0.00 | 0.00 | 0.00 | 70 | 1013.4 |
| 20260902150425 | 76 | 65 | 0.0 | 2.0 | 0.00 | 0.00 | 0.00 | 69 | 1013.4 |
| 20260902150150 | 76 | 148 | 0.0 | 3.0 | 0.00 | 0.00 | 0.00 | 69 | 1013.3 |
| 20260902145413 | 76 | 153 | 0.0 | 3.0 | 0.00 | 0.00 | 0.00 | 70 | 1013.3 |
| 20260902144907 | 76 | 236 | 0.0 | 3.0 | 0.00 | 0.00 | 0.00 | 71 | 1013.5 |
| 20260902144401 | 75 | 236 | 0.0 | 3.0 | 0.00 | 0.00 | 0.00 | 71 | 1013.4 |
| 20260902143855 | 75 | 97 | 0.0 | 2.0 | 0.00 | 0.00 | 0.00 | 72 | 1013.5 |
| 20260902143349 | 75 | 79 | 0.0 | 0.0 | 0.00 | 0.00 | 0.00 | 70 | 1013.5 |
| 20260902143114 | 75 | 126 | 1.0 | 3.0 | 0.00 | 0.00 | 0.00 | 71 | 1013.6 |
| 20260902142337 | 74 | 113 | 1.0 | 4.0 | 0.00 | 0.00 | 0.00 | 74 | 1013.6 |
| 20260902141831 | 74 | 91 | 0.0 | 4.0 | 0.00 | 0.00 | 0.00 | 74 | 1013.7 |
| 20260902141325 | 74 | 71 | 0.0 | 2.0 | 0.00 | 0.00 | 0.00 | 76 | 1013.8 |
| 20260902141050 | 74 | 98 | 0.0 | 2.0 | 0.00 | 0.00 | 0.00 | 77 | 1013.8 |
| 20260902140313 | 73 | 122 | 0.0 | 2.0 | 0.00 | 0.00 | 0.00 | 78 | 1013.7 |
| 20260902135807 | 72 | 3 | 0.0 | 0.0 | 0.00 | 0.00 | 0.00 | 79 | 1013.7 |
| 20260902135301 | 71 | 3 | 0.0 | 2.0 | 0.00 | 0.00 | 0.00 | 80 | 1013.8 |
| 20260902134755 | 70 | 2 | 1.0 | 2.0 | 0.00 | 0.00 | 0.00 | 83 | 1013.7 |
| 20260902134249 | 69 | 29 | 2.0 | 4.0 | 0.00 | 0.00 | 0.00 | 85 | 1013.8 |
| 20260902133743 | 69 | 18 | 2.0 | 4.0 | 0.00 | 0.00 | 0.00 | 85 | 1013.5 |
| 20260902133236 | 69 | 34 | 2.0 | 4.0 | 0.00 | 0.00 | 0.00 | 87 | 1013.5 |
| 20260902132731 | 69 | 25 | 1.0 | 3.0 | 0.00 | 0.00 | 0.00 | 88 | 1013.5 |
| 20260902132225 | 68 | 20 | 1.0 | 3.0 | 0.00 | 0.00 | 0.00 | 89 | 1013.8 |
| 20260902131953 | 68 | 357 | 1.0 | 2.0 | 0.00 | 0.00 | 0.00 | 89 | 1013.9 |
| 20260902131213 | 69 | 226 | 0.0 | 1.0 | 0.00 | 0.00 | 0.00 | 88 | 1013.9 |
| 20260902130707 | 69 | 224 | 0.0 | 1.0 | 0.00 | 0.00 | 0.00 | 90 | 1013.9 |
| 20260902130201 | 68 | 224 | 0.0 | 1.0 | 0.00 | 0.00 | 0.00 | 93 | 1013.8 |
| 20260902125655 | 67 | 224 | 0.0 | 1.0 | 0.00 | 0.00 | 0.00 | 94 | 1013.9 |
| 20260902125149 | 66 | 224 | 0.0 | 0.0 | 0.00 | 0.00 | 0.00 | 95 | 1014.0 |
| 20260902124643 | 65 | 224 | 0.0 | 0.0 | 0.00 | 0.00 | 0.00 | 95 | 1014.1 |
| 20260902124137 | 64 | 225 | 0.0 | 0.0 | 0.00 | 0.00 | 0.00 | 95 | 1014.0 |
| 20260902123631 | 64 | 224 | 0.0 | 0.0 | 0.00 | 0.00 | 0.00 | 95 | 1013.9 |
| 20260902123125 | 63 | 225 | 0.0 | 0.0 | 0.00 | 0.00 | 0.00 | 96 | 1013.8 |
| 20260902122619 | 62 | 224 | 0.0 | 1.0 | 0.00 | 0.00 | 0.00 | 97 | 1013.9 |
| 20260902122113 | 61 | 225 | 1.0 | 1.0 | 0.00 | 0.00 | 0.00 | 97 | 1013.9 |
| 20260902121607 | 61 | 224 | 0.0 | 1.0 | 0.00 | 0.00 | 0.00 | 97 | 1013.9 |
| 20260902121102 | 60 | 225 | 0.0 | 1.0 | 0.00 | 0.00 | 0.00 | 97 | 1013.9 |
| 20260902121056 | 60 | 224 | 0.0 | 0.0 | 0.00 | 0.00 | 0.00 | 97 | 1013.9 |
| 20260902120320 | 60 | 225 | 0.0 | 0.0 | 0.00 | 0.00 | 0.00 | 96 | 1013.9 |
| 20260902115544 | 60 | 224 | 0.0 | 0.0 | 0.00 | 0.00 | 0.00 | 96 | 1013.9 |
| 20260902115037 | 60 | 225 | 0.0 | 1.0 | 0.00 | 0.00 | 0.00 | 96 | 1013.8 |
| 20260902114802 | 60 | 224 | 0.0 | 1.0 | 0.00 | 0.00 | 0.00 | 96 | 1013.8 |
| 20260902114025 | 60 | 225 | 1.0 | 1.0 | 0.00 | 0.01 | 0.00 | 96 | 1013.8 |
| 20260902113519 | 61 | 224 | 0.0 | 1.0 | 0.00 | 0.01 | 0.00 | 96 | 1013.8 |
| 20260902113245 | 61 | 225 | 0.0 | 1.0 | 0.00 | 0.01 | 0.00 | 96 | 1013.7 |
| 20260902112507 | 61 | 225 | 0.0 | 1.0 | 0.00 | 0.01 | 0.00 | 96 | 1013.6 |
| 20260902112001 | 61 | 225 | 0.0 | 0.0 | 0.00 | 0.01 | 0.00 | 96 | 1013.3 |
| 20260902111455 | 62 | 224 | 0.0 | 0.0 | 0.00 | 0.01 | 0.00 | 96 | 1013.3 |
| 20260902110949 | 62 | 224 | 0.0 | 0.0 | 0.00 | 0.01 | 0.00 | 96 | 1013.3 |
| 20260902110443 | 62 | 224 | 0.0 | 0.0 | 0.00 | 0.01 | 0.00 | 96 | 1013.3 |
| 20260902105937 | 62 | 224 | 0.0 | 0.0 | 0.00 | 0.01 | 0.00 | 96 | 1013.0 |
| 20260902105431 | 62 | 224 | 0.0 | 0.0 | 0.00 | 0.01 | 0.00 | 96 | 1012.9 |
| 20260902105156 | 62 | 225 | 0.0 | 0.0 | 0.00 | 0.01 | 0.00 | 96 | 1012.9 |
| 20260902104419 | 62 | 224 | 0.0 | 0.0 | 0.00 | 0.01 | 0.00 | 96 | 1013.0 |
| 20260902103913 | 62 | 224 | 0.0 | 0.0 | 0.00 | 0.01 | 0.00 | 96 | 1012.9 |
| 20260902103407 | 62 | 224 | 0.0 | 1.0 | 0.00 | 0.01 | 0.00 | 96 | 1013.1 |
| 20260902103133 | 62 | 224 | 0.0 | 1.0 | 0.00 | 0.01 | 0.00 | 95 | 1013.1 |
| 20260902102355 | 62 | 224 | 0.0 | 1.0 | 0.00 | 0.01 | 0.00 | 95 | 1013.0 |
| 20260902101849 | 62 | 224 | 0.0 | 1.0 | 0.00 | 0.01 | 0.00 | 95 | 1013.0 |
| 20260902101345 | 62 | 225 | 0.0 | 1.0 | 0.00 | 0.01 | 0.00 | 95 | 1013.1 |
| 20260902101339 | 62 | 224 | 0.0 | 0.0 | 0.00 | 0.01 | 0.00 | 95 | 1013.2 |
| 20260902100333 | 63 | 224 | 0.0 | 1.0 | 0.00 | 0.01 | 0.00 | 94 | 1013.2 |
| 20260902100105 | 63 | 224 | 0.0 | 1.0 | 0.00 | 0.01 | 0.00 | 94 | 1013.2 |
| 20260902095336 | 63 | 224 | 0.0 | 0.0 | 0.00 | 0.01 | 0.00 | 94 | 1013.2 |
| 20260902094833 | 63 | 225 | 0.0 | 0.0 | 0.00 | 0.01 | 0.00 | 93 | 1013.1 |
| 20260902094330 | 64 | 225 | 0.0 | 0.0 | 0.00 | 0.01 | 0.00 | 93 | 1013.2 |
| 20260902093829 | 64 | 224 | 0.0 | 0.0 | 0.00 | 0.01 | 0.00 | 93 | 1013.3 |
| 20260902093328 | 64 | 224 | 0.0 | 0.0 | 0.00 | 0.01 | 0.00 | 93 | 1013.3 |
| 20260902092829 | 64 | 224 | 0.0 | 0.0 | 0.00 | 0.01 | 0.00 | 93 | 1013.3 |
| 20260902092330 | 64 | 225 | 0.0 | 0.0 | 0.00 | 0.01 | 0.00 | 93 | 1013.3 |
| 20260902092059 | 64 | 224 | 0.0 | 0.0 | 0.00 | 0.01 | 0.00 | 93 | 1013.5 |
| 20260902091602 | 64 | 224 | 0.0 | 0.0 | 0.00 | 0.01 | 0.00 | 93 | 1013.7 |
| 20260902090825 | 64 | 225 | 0.0 | 0.0 | 0.00 | 0.01 | 0.00 | 93 | 1013.8 |
| 20260902090326 | 64 | 224 | 0.0 | 1.0 | 0.00 | 0.01 | 0.00 | 92 | 1013.8 |
| 20260902085824 | 64 | 224 | 0.0 | 1.0 | 0.00 | 0.01 | 0.00 | 92 | 1013.8 |
| 20260902085325 | 64 | 224 | 0.0 | 0.0 | 0.00 | 0.01 | 0.00 | 92 | 1013.8 |
| 20260902084826 | 65 | 225 | 0.0 | 0.0 | 0.00 | 0.01 | 0.00 | 92 | 1013.6 |
| 20260902084325 | 65 | 224 | 0.0 | 1.0 | 0.00 | 0.01 | 0.00 | 91 | 1013.5 |
| 20260902083826 | 65 | 224 | 1.0 | 2.0 | 0.00 | 0.01 | 0.00 | 91 | 1013.5 |
| 20260902083555 | 65 | 225 | 1.0 | 2.0 | 0.00 | 0.01 | 0.00 | 90 | 1013.3 |
| 20260902082826 | 65 | 224 | 0.0 | 1.0 | 0.00 | 0.01 | 0.00 | 90 | 1013.4 |
| 20260902082556 | 65 | 224 | 0.0 | 1.0 | 0.00 | 0.01 | 0.00 | 90 | 1013.3 |
| 20260902081825 | 65 | 224 | 1.0 | 3.0 | 0.00 | 0.01 | 0.00 | 89 | 1013.2 |
| 20260902081324 | 65 | 224 | 1.0 | 3.0 | 0.00 | 0.01 | 0.00 | 89 | 1013.0 |
| 20260902081058 | 65 | 231 | 0.0 | 2.0 | 0.00 | 0.01 | 0.00 | 89 | 1013.0 |
| 20260902080324 | 65 | 227 | 1.0 | 2.0 | 0.00 | 0.01 | 0.00 | 90 | 1013.0 |
| 20260902075825 | 65 | 34 | 1.0 | 2.0 | 0.00 | 0.01 | 0.00 | 89 | 1012.9 |
| 20260902075324 | 66 | 34 | 1.0 | 2.0 | 0.00 | 0.01 | 0.00 | 89 | 1013.0 |
| 20260902074826 | 66 | 35 | 0.0 | 1.0 | 0.00 | 0.01 | 0.00 | 89 | 1012.9 |
| 20260902074323 | 66 | 36 | 0.0 | 1.0 | 0.00 | 0.01 | 0.00 | 89 | 1012.7 |
| 20260902073816 | 66 | 36 | 0.0 | 0.0 | 0.00 | 0.01 | 0.00 | 90 | 1012.6 |
| 20260902073312 | 66 | 36 | 0.0 | 0.0 | 0.00 | 0.01 | 0.00 | 88 | 1012.6 |
| 20260902073306 | 66 | 36 | 0.0 | 0.0 | 0.00 | 0.01 | 0.00 | 90 | 1012.7 |
| 20260902072259 | 67 | 36 | 0.0 | 0.0 | 0.00 | 0.01 | 0.00 | 89 | 1012.7 |
| 20260902071753 | 67 | 36 | 0.0 | 0.0 | 0.00 | 0.01 | 0.00 | 89 | 1012.9 |
| 20260902071247 | 67 | 36 | 0.0 | 1.0 | 0.00 | 0.01 | 0.00 | 89 | 1013.0 |
| 20260902070739 | 67 | 36 | 1.0 | 1.0 | 0.00 | 0.01 | 0.00 | 89 | 1013.0 |
| 20260902070233 | 67 | 23 | 1.0 | 2.0 | 0.00 | 0.01 | 0.00 | 89 | 1012.9 |
| 20260902065727 | 67 | 22 | 1.0 | 2.0 | 0.00 | 0.01 | 0.00 | 90 | 1012.6 |
| 20260902065221 | 67 | 55 | 1.0 | 2.0 | 0.00 | 0.01 | 0.00 | 91 | 1012.6 |
| 20260902064715 | 66 | 58 | 0.0 | 2.0 | 0.00 | 0.01 | 0.00 | 93 | 1012.5 |
| 20260902064209 | 66 | 15 | 0.0 | 0.0 | 0.00 | 0.01 | 0.00 | 93 | 1012.7 |
| 20260902063705 | 65 | 15 | 0.0 | 0.0 | 0.00 | 0.01 | 0.00 | 93 | 1012.6 |
| 20260902063157 | 65 | 239 | 0.0 | 0.0 | 0.00 | 0.01 | 0.00 | 93 | 1013.0 |
| 20260902062651 | 65 | 239 | 0.0 | 0.0 | 0.00 | 0.01 | 0.00 | 93 | 1013.0 |
| 20260902062145 | 65 | 225 | 0.0 | 0.0 | 0.00 | 0.01 | 0.00 | 93 | 1013.2 |
| 20260902061133 | 65 | 225 | 0.0 | 0.0 | 0.00 | 0.01 | 0.00 | 93 | 1013.5 |
| 20260902060626 | 65 | 225 | 0.0 | 0.0 | 0.00 | 0.01 | 0.00 | 93 | 1013.6 |
| 20260902060121 | 66 | 225 | 0.0 | 0.0 | 0.00 | 0.01 | 0.00 | 93 | 1013.4 |
| 20260902055615 | 66 | 225 | 0.0 | 0.0 | 0.00 | 0.01 | 0.00 | 93 | 1013.6 |
| 20260902055109 | 66 | 225 | 0.0 | 0.0 | 0.00 | 0.01 | 0.00 | 92 | 1013.6 |
| 20260902054603 | 66 | 225 | 0.0 | 0.0 | 0.00 | 0.01 | 0.00 | 92 | 1013.6 |
| 20260902054057 | 66 | 225 | 0.0 | 0.0 | 0.00 | 0.01 | 0.00 | 92 | 1013.8 |
| 20260902053823 | 66 | 225 | 0.0 | 0.0 | 0.00 | 0.01 | 0.00 | 93 | 1013.9 |
| 20260902053045 | 66 | 225 | 0.0 | 0.0 | 0.00 | 0.01 | 0.00 | 93 | 1013.9 |
| 20260902052539 | 66 | 225 | 0.0 | 0.0 | 0.00 | 0.01 | 0.00 | 94 | 1013.9 |
| 20260902052033 | 66 | 225 | 0.0 | 0.0 | 0.00 | 0.01 | 0.00 | 94 | 1013.8 |
| 20260902051526 | 66 | 225 | 0.0 | 0.0 | 0.00 | 0.01 | 0.00 | 94 | 1013.5 |
| 20260902051021 | 66 | 225 | 0.0 | 0.0 | 0.00 | 0.01 | 0.00 | 94 | 1013.5 |
| 20260902050515 | 66 | 225 | 0.0 | 0.0 | 0.00 | 0.01 | 0.00 | 93 | 1013.5 |
| 20260902050009 | 66 | 225 | 0.0 | 0.0 | 0.00 | 0.01 | 0.00 | 93 | 1013.5 |
| 20260902045503 | 66 | 225 | 0.0 | 0.0 | 0.00 | 0.01 | 0.01 | 93 | 1013.5 |
| 20260902044957 | 66 | 225 | 0.0 | 0.0 | 0.00 | 0.01 | 0.01 | 93 | 1013.5 |
| 20260902044451 | 66 | 225 | 0.0 | 0.0 | 0.00 | 0.01 | 0.01 | 93 | 1013.5 |
| 20260902043944 | 66 | 225 | 0.0 | 0.0 | 0.00 | 0.01 | 0.01 | 93 | 1013.6 |
| 20260902043439 | 66 | 225 | 0.0 | 0.0 | 0.00 | 0.01 | 0.01 | 92 | 1013.6 |
| 20260902043204 | 66 | 225 | 0.0 | 0.0 | 0.00 | 0.01 | 0.01 | 92 | 1013.8 |
| 20260902042427 | 66 | 225 | 0.0 | 0.0 | 0.00 | 0.01 | 0.01 | 92 | 1013.8 |
| 20260902041921 | 66 | 225 | 0.0 | 0.0 | 0.00 | 0.01 | 0.01 | 92 | 1013.8 |
| 20260902041646 | 66 | 225 | 0.0 | 0.0 | 0.00 | 0.01 | 0.01 | 92 | 1013.9 |
| 20260902040911 | 66 | 225 | 0.0 | 0.0 | 0.00 | 0.01 | 0.01 | 93 | 1014.0 |
| 20260902040403 | 66 | 225 | 0.0 | 0.0 | 0.00 | 0.01 | 0.01 | 92 | 1013.9 |
| 20260902035857 | 66 | 225 | 0.0 | 0.0 | 0.00 | 0.01 | 0.01 | 93 | 1014.0 |
| 20260902035351 | 66 | 225 | 0.0 | 0.0 | 0.00 | 0.01 | 0.01 | 92 | 1014.0 |
| 20260902034845 | 66 | 225 | 0.0 | 0.0 | 0.00 | 0.01 | 0.01 | 92 | 1014.0 |
| 20260902034338 | 67 | 225 | 0.0 | 0.0 | 0.00 | 0.01 | 0.01 | 92 | 1014.1 |
| 20260902033833 | 67 | 225 | 0.0 | 1.0 | 0.00 | 0.01 | 0.01 | 92 | 1014.0 |
| 20260902033327 | 67 | 225 | 0.0 | 1.0 | 0.00 | 0.01 | 0.01 | 91 | 1013.9 |
| 20260902033051 | 67 | 225 | 0.0 | 1.0 | 0.00 | 0.01 | 0.01 | 90 | 1014.0 |
| 20260902032924 | 67 | 225 | 1.0 | 1.0 | 0.00 | 0.01 | 0.01 | 91 | 1014.0 |
| 20260902031809 | 67 | 225 | 0.0 | 0.0 | 0.00 | 0.01 | 0.01 | 90 | 1013.9 |
| 20260902031302 | 67 | 225 | 0.0 | 0.0 | 0.00 | 0.01 | 0.01 | 89 | 1013.7 |
| 20260902030757 | 67 | 225 | 0.0 | 0.0 | 0.00 | 0.01 | 0.01 | 90 | 1013.8 |
| 20260902030251 | 67 | 225 | 0.0 | 0.0 | 0.00 | 0.01 | 0.01 | 90 | 1013.8 |
| 20260902025745 | 67 | 225 | 0.0 | 0.0 | 0.00 | 0.01 | 0.01 | 88 | 1013.5 |
| 20260902025239 | 67 | 225 | 0.0 | 1.0 | 0.00 | 0.01 | 0.01 | 88 | 1013.8 |
| 20260902024733 | 67 | 225 | 1.0 | 1.0 | 0.00 | 0.01 | 0.01 | 88 | 1013.9 |
| 20260902024227 | 67 | 225 | 0.0 | 1.0 | 0.00 | 0.01 | 0.01 | 87 | 1013.9 |
| 20260902023720 | 68 | 225 | 0.0 | 1.0 | 0.00 | 0.01 | 0.01 | 87 | 1013.8 |
| 20260902023215 | 68 | 225 | 1.0 | 1.0 | 0.00 | 0.01 | 0.01 | 86 | 1013.8 |
| 20260902022708 | 68 | 225 | 1.0 | 2.0 | 0.00 | 0.01 | 0.01 | 85 | 1013.8 |
| 20260902022203 | 68 | 225 | 1.0 | 2.0 | 0.00 | 0.01 | 0.01 | 85 | 1013.9 |
| 20260902021656 | 68 | 225 | 0.0 | 2.0 | 0.00 | 0.01 | 0.01 | 85 | 1013.8 |
| 20260902021151 | 68 | 225 | 0.0 | 1.0 | 0.00 | 0.01 | 0.01 | 84 | 1013.8 |
| 20260902020646 | 68 | 236 | 0.0 | 1.0 | 0.00 | 0.01 | 0.01 | 83 | 1013.6 |
| 20260902020138 | 69 | 288 | 0.0 | 1.0 | 0.00 | 0.01 | 0.01 | 83 | 1013.4 |
| 20260902015633 | 69 | 288 | 0.0 | 1.0 | 0.00 | 0.01 | 0.01 | 80 | 1013.3 |
| 20260902015129 | 69 | 288 | 0.0 | 1.0 | 0.00 | 0.01 | 0.01 | 80 | 1013.3 |
| 20260902015123 | 69 | 288 | 0.0 | 1.0 | 0.00 | 0.01 | 0.01 | 82 | 1013.3 |
| 20260902014346 | 69 | 303 | 0.0 | 1.0 | 0.00 | 0.01 | 0.01 | 81 | 1013.2 |
| 20260902013609 | 70 | 9 | 0.0 | 1.0 | 0.00 | 0.01 | 0.01 | 84 | 1013.2 |
| 20260902013335 | 69 | 10 | 0.0 | 1.0 | 0.00 | 0.01 | 0.01 | 86 | 1012.9 |
| 20260902012557 | 69 | 230 | 0.0 | 0.0 | 0.00 | 0.01 | 0.01 | 82 | 1012.9 |
| 20260902012050 | 69 | 230 | 0.0 | 0.0 | 0.00 | 0.01 | 0.01 | 82 | 1013.2 |
| 20260902011545 | 69 | 230 | 0.0 | 0.0 | 0.00 | 0.01 | 0.01 | 82 | 1013.1 |
| 20260902011310 | 69 | 230 | 0.0 | 0.0 | 0.00 | 0.01 | 0.01 | 82 | 1013.2 |
| 20260902010804 | 70 | 230 | 0.0 | 0.0 | 0.00 | 0.01 | 0.01 | 84 | 1013.1 |
| 20260902010027 | 70 | 230 | 0.0 | 0.0 | 0.00 | 0.01 | 0.01 | 84 | 1013.0 |
| 20260902005521 | 70 | 230 | 0.0 | 0.0 | 0.00 | 0.01 | 0.01 | 82 | 1013.1 |
| 20260902005015 | 71 | 230 | 0.0 | 0.0 | 0.00 | 0.01 | 0.01 | 80 | 1013.0 |
| 20260902004509 | 71 | 230 | 0.0 | 0.0 | 0.00 | 0.01 | 0.01 | 78 | 1013.1 |
| 20260902004002 | 71 | 230 | 0.0 | 0.0 | 0.00 | 0.01 | 0.01 | 77 | 1013.3 |
| 20260902003457 | 72 | 230 | 0.0 | 1.0 | 0.00 | 0.01 | 0.01 | 76 | 1013.3 |
| 20260902002951 | 72 | 230 | 0.0 | 1.0 | 0.00 | 0.01 | 0.01 | 75 | 1013.3 |
| 20260902002445 | 72 | 229 | 0.0 | 0.0 | 0.00 | 0.01 | 0.01 | 75 | 1013.3 |
| 20260902001939 | 73 | 230 | 0.0 | 0.0 | 0.00 | 0.01 | 0.01 | 74 | 1013.4 |
| 20260902001434 | 73 | 230 | 0.0 | 0.0 | 0.00 | 0.01 | 0.01 | 75 | 1013.3 |
| 20260902000934 | 73 | 229 | 0.0 | 0.0 | 0.00 | 0.01 | 0.01 | 75 | 1013.3 |
| 20260902000436 | 73 | 229 | 0.0 | 0.0 | 0.00 | 0.01 | 0.01 | 74 | 1013.4 |
| 20260901235934 | 74 | 229 | 0.0 | 0.0 | 0.00 | 0.01 | 0.01 | 77 | 1013.4 |
| 20260901235434 | 74 | 229 | 0.0 | 0.0 | 0.00 | 0.01 | 0.01 | 79 | 1013.3 |
| 20260901234935 | 75 | 230 | 0.0 | 0.0 | 0.00 | 0.01 | 0.01 | 78 | 1013.4 |
| 20260901234435 | 75 | 229 | 0.0 | 0.0 | 0.00 | 0.01 | 0.01 | 72 | 1013.4 |
| 20260901233933 | 76 | 229 | 0.0 | 0.0 | 0.00 | 0.01 | 0.01 | 70 | 1013.4 |
| 20260901233435 | 76 | 229 | 0.0 | 0.0 | 0.00 | 0.01 | 0.01 | 69 | 1013.5 |
| 20260901232933 | 76 | 229 | 0.0 | 0.0 | 0.00 | 0.01 | 0.01 | 69 | 1013.5 |
| 20260901232432 | 77 | 230 | 0.0 | 0.0 | 0.00 | 0.01 | 0.01 | 71 | 1013.4 |
| 20260901232203 | 78 | 230 | 0.0 | 1.0 | 0.00 | 0.01 | 0.01 | 73 | 1013.3 |
| 20260901231429 | 78 | 230 | 0.0 | 1.0 | 0.00 | 0.01 | 0.01 | 70 | 1013.1 |
| 20260901230929 | 78 | 223 | 0.0 | 1.0 | 0.00 | 0.01 | 0.01 | 69 | 1013.0 |
| 20260901230428 | 78 | 224 | 0.0 | 1.0 | 0.00 | 0.01 | 0.01 | 68 | 1013.1 |
| 20260901225928 | 78 | 331 | 0.0 | 1.0 | 0.00 | 0.01 | 0.01 | 70 | 1013.1 |
| 20260901225430 | 78 | 81 | 0.0 | 1.0 | 0.00 | 0.01 | 0.01 | 71 | 1013.2 |
| 20260901225153 | 79 | 3 | 0.0 | 1.0 | 0.00 | 0.01 | 0.01 | 71 | 1013.3 |
| 20260901224424 | 79 | 4 | 0.0 | 0.0 | 0.00 | 0.01 | 0.01 | 69 | 1013.3 |
| 20260901223921 | 79 | 350 | 0.0 | 1.0 | 0.00 | 0.01 | 0.01 | 69 | 1013.3 |
| 20260901223649 | 79 | 350 | 0.0 | 1.0 | 0.00 | 0.01 | 0.01 | 70 | 1013.4 |
| 20260901222918 | 80 | 350 | 0.0 | 1.0 | 0.00 | 0.01 | 0.01 | 71 | 1013.3 |
| 20260901222418 | 80 | 349 | 0.0 | 1.0 | 0.00 | 0.01 | 0.01 | 69 | 1013.3 |
| 20260901221917 | 80 | 354 | 0.0 | 1.0 | 0.00 | 0.01 | 0.01 | 71 | 1013.2 |
| 20260901221417 | 80 | 354 | 0.0 | 1.0 | 0.00 | 0.01 | 0.01 | 71 | 1013.2 |
| 20260901220919 | 80 | 354 | 0.0 | 1.0 | 0.00 | 0.01 | 0.01 | 68 | 1013.2 |
| 20260901220415 | 80 | 354 | 0.0 | 1.0 | 0.00 | 0.01 | 0.01 | 68 | 1013.1 |
| 20260901215916 | 80 | 345 | 0.0 | 2.0 | 0.00 | 0.01 | 0.01 | 68 | 1013.1 |
| 20260901215417 | 80 | 343 | 1.0 | 4.0 | 0.00 | 0.01 | 0.01 | 63 | 1013.0 |
| 20260901215142 | 80 | 348 | 1.0 | 4.0 | 0.00 | 0.01 | 0.01 | 63 | 1013.0 |
| 20260901215031 | 80 | 342 | 1.0 | 3.0 | 0.00 | 0.01 | 0.01 | 64 | 1013.0 |
| 20260901213912 | 80 | 342 | 1.0 | 3.0 | 0.00 | 0.01 | 0.01 | 62 | 1013.0 |
| 20260901213417 | 80 | 348 | 1.0 | 3.0 | 0.00 | 0.01 | 0.01 | 65 | 1013.0 |
| 20260901213411 | 80 | 348 | 0.0 | 3.0 | 0.00 | 0.01 | 0.01 | 62 | 1013.0 |
| 20260901212412 | 80 | 347 | 1.0 | 2.0 | 0.00 | 0.01 | 0.01 | 60 | 1013.0 |
| 20260901212145 | 81 | 338 | 0.0 | 2.0 | 0.00 | 0.01 | 0.01 | 62 | 1013.0 |
| 20260901211412 | 81 | 348 | 0.0 | 0.0 | 0.00 | 0.01 | 0.01 | 62 | 1012.9 |
| 20260901210912 | 81 | 352 | 0.0 | 0.0 | 0.00 | 0.01 | 0.01 | 61 | 1013.0 |
| 20260901210409 | 81 | 11 | 0.0 | 0.0 | 0.00 | 0.01 | 0.01 | 59 | 1013.1 |
| 20260901205907 | 81 | 14 | 0.0 | 0.0 | 0.00 | 0.01 | 0.01 | 59 | 1013.1 |
| 20260901205642 | 81 | 14 | 0.0 | 0.0 | 0.00 | 0.01 | 0.01 | 62 | 1013.1 |
| 20260901204909 | 82 | 14 | 0.0 | 0.0 | 0.00 | 0.01 | 0.01 | 63 | 1013.2 |
| 20260901204409 | 82 | 97 | 0.0 | 0.0 | 0.00 | 0.01 | 0.01 | 60 | 1013.2 |
| 20260901203908 | 82 | 97 | 0.0 | 1.0 | 0.00 | 0.01 | 0.01 | 59 | 1013.1 |
| 20260901203407 | 82 | 88 | 0.0 | 3.0 | 0.00 | 0.01 | 0.01 | 56 | 1013.2 |
| 20260901202907 | 82 | 221 | 1.0 | 3.0 | 0.00 | 0.01 | 0.01 | 55 | 1013.2 |
| 20260901202409 | 82 | 228 | 1.0 | 4.0 | 0.00 | 0.01 | 0.01 | 54 | 1013.2 |
| 20260901201908 | 82 | 266 | 1.0 | 4.0 | 0.00 | 0.01 | 0.01 | 54 | 1013.3 |
| 20260901201637 | 82 | 226 | 1.0 | 4.0 | 0.00 | 0.01 | 0.01 | 51 | 1013.3 |
| 20260901200905 | 83 | 0 | 1.0 | 6.0 | 0.00 | 0.01 | 0.01 | 50 | 1013.3 |
| 20260901200405 | 83 | 14 | 1.0 | 6.0 | 0.00 | 0.01 | 0.01 | 52 | 1013.4 |
| 20260901200137 | 83 | 264 | 1.0 | 4.0 | 0.00 | 0.01 | 0.01 | 50 | 1013.3 |
| 20260901195407 | 83 | 237 | 1.0 | 4.0 | 0.00 | 0.01 | 0.01 | 55 | 1013.4 |
| 20260901194904 | 83 | 199 | 2.0 | 5.0 | 0.00 | 0.01 | 0.01 | 52 | 1013.4 |
| 20260901194405 | 83 | 242 | 1.0 | 5.0 | 0.00 | 0.01 | 0.01 | 51 | 1013.5 |
| 20260901193905 | 83 | 3 | 1.0 | 3.0 | 0.00 | 0.01 | 0.01 | 55 | 1013.4 |
| 20260901193403 | 83 | 155 | 1.0 | 4.0 | 0.00 | 0.01 | 0.01 | 57 | 1013.4 |
| 20260901192905 | 82 | 337 | 1.0 | 4.0 | 0.00 | 0.01 | 0.01 | 52 | 1013.4 |
| 20260901192401 | 82 | 220 | 1.0 | 4.0 | 0.00 | 0.01 | 0.01 | 54 | 1013.4 |
| 20260901191900 | 81 | 345 | 2.0 | 4.0 | 0.00 | 0.01 | 0.01 | 56 | 1013.4 |
| 20260901191357 | 82 | 330 | 1.0 | 4.0 | 0.00 | 0.01 | 0.01 | 54 | 1013.4 |
| 20260901190855 | 83 | 358 | 0.0 | 3.0 | 0.00 | 0.01 | 0.01 | 53 | 1013.5 |
| 20260901190353 | 82 | 307 | 0.0 | 3.0 | 0.00 | 0.01 | 0.01 | 56 | 1013.7 |
| 20260901190125 | 82 | 330 | 1.0 | 3.0 | 0.00 | 0.01 | 0.01 | 54 | 1013.8 |
| 20260901185349 | 82 | 343 | 1.0 | 3.0 | 0.00 | 0.01 | 0.01 | 56 | 1013.8 |
| 20260901184843 | 82 | 339 | 1.0 | 3.0 | 0.00 | 0.01 | 0.01 | 55 | 1013.8 |
| 20260901184337 | 82 | 331 | 1.0 | 3.0 | 0.00 | 0.01 | 0.01 | 56 | 1013.9 |
| 20260901184057 | 82 | 349 | 1.0 | 3.0 | 0.00 | 0.01 | 0.01 | 54 | 1013.9 |
| 20260901183933 | 82 | 332 | 1.0 | 3.0 | 0.00 | 0.01 | 0.01 | 54 | 1013.9 |
| 20260901182819 | 81 | 212 | 1.0 | 5.0 | 0.00 | 0.01 | 0.01 | 56 | 1014.0 |
| 20260901182313 | 81 | 300 | 2.0 | 5.0 | 0.00 | 0.01 | 0.01 | 55 | 1014.0 |
| 20260901181807 | 82 | 342 | 1.0 | 4.0 | 0.00 | 0.01 | 0.01 | 51 | 1014.0 |
| 20260901181302 | 82 | 248 | 1.0 | 4.0 | 0.00 | 0.01 | 0.01 | 52 | 1014.0 |
| 20260901180755 | 82 | 353 | 2.0 | 6.0 | 0.00 | 0.01 | 0.01 | 55 | 1014.0 |
| 20260901180520 | 83 | 314 | 1.0 | 6.0 | 0.00 | 0.01 | 0.01 | 53 | 1014.1 |
| 20260901175743 | 83 | 251 | 1.0 | 3.0 | 0.00 | 0.01 | 0.01 | 53 | 1014.2 |
| 20260901175508 | 83 | 328 | 1.0 | 5.0 | 0.00 | 0.01 | 0.01 | 54 | 1014.2 |
| 20260901174731 | 82 | 351 | 1.0 | 5.0 | 0.00 | 0.01 | 0.01 | 55 | 1014.2 |
| 20260901174225 | 82 | 122 | 1.0 | 3.0 | 0.00 | 0.01 | 0.01 | 56 | 1014.3 |
| 20260901173719 | 81 | 167 | 1.0 | 4.0 | 0.00 | 0.01 | 0.01 | 59 | 1014.3 |
| 20260901173213 | 81 | 207 | 1.0 | 7.0 | 0.00 | 0.01 | 0.01 | 55 | 1014.4 |
| 20260901172707 | 81 | 342 | 2.0 | 7.0 | 0.00 | 0.01 | 0.01 | 56 | 1014.5 |
| 20260901172202 | 81 | 198 | 1.0 | 5.0 | 0.00 | 0.01 | 0.01 | 59 | 1014.6 |
| 20260901171655 | 81 | 59 | 1.0 | 4.0 | 0.00 | 0.01 | 0.01 | 60 | 1014.6 |
| 20260901171149 | 80 | 219 | 1.0 | 5.0 | 0.00 | 0.01 | 0.01 | 59 | 1014.6 |